Location: New York
(40.7127°N, 74.0060°W)
Time: 18:14:51
(UTC-04:00)

VELOX 1 - Pass Details

Date: 25 April 2024
Orbit: 605 x 617 km, 98.3° (Epoch: 27 May)

Event Time Altitude Azimuth Distance (km) Brightness Sun altitude
Rises 21:45:56 0° 1° (N) 2,902 ? -20.4°
Reaches altitude 10° 21:48:21 10° 350° (N) 1,992 ? -20.8°
Maximum altitude 21:52:02 28° 292° (WNW) 1,174 ? -21.3°
Drops below altitude 10° 21:55:42 10° 233° (SW) 1,978 ? -21.8°
Sets 21:58:06 0° 222° (SW) 2,877 ? -22.1°
